{"data":{"norad_id":65439,"intl_designator":"2025-194F","name":"STARLINK-35045","alt_names":[],"object_type":"PAYLOAD","status":"ACTIVE","operator":null,"country":"US","launch_date":"2025-09-03","launch_site_code":"AFWTR","launch_vehicle":null,"mission":null,"orbit_class":"UNKNOWN","rcs_meters":null,"size_class":null,"mass_kg":null,"dimensions":null,"purposes":["comms"],"wikipedia_slug":null,"has_3d_model":false,"image_url":null,"decayed_at":null,"tle_current":{"epoch":"2026-05-25T03:34:16.775328Z","epoch_age_seconds":62197,"freshness":"FRESH","line1":"1 65439U 25194F   26145.14880527  .00002974  00000+0  21005-3 0  9993","line2":"2 65439  97.4476 359.3925 0001436  82.2881 277.8509 15.05657423 41152","mean_motion":15.05657423,"eccentricity":0.0001436,"inclination_deg":97.4476,"raan_deg":359.3925,"arg_perigee_deg":82.2881,"mean_anomaly_deg":277.8509,"bstar":0.00021005,"rev_number":4115,"period_min":95.639285404699,"perigee_km":548.49357781082,"apogee_km":550.48319182134,"semimajor_km":6927.6253848161,"source":"CELESTRAK","updated_at":"2026-05-25T13:38:20.806686Z"}}}